GAOFEN-12 02

Last updated on Tue Oct 15 2024 00:02:25 GMT+0000 (Coordinated Universal Time)

1 48079U 21026A 24288.57608991 .00001771 00000+0 23731-3 0 9992 2 48079 97.9606 279.2880 0004302 115.3941 244.7717 14.80668553191410
UTC large
Height (km)
Speed (km/s)
/
Latitude / Longitude
Inclination (degrees)
Orbital Period (minutes)
Azimuth
Elevation
Range (km)
Doppler Factor

Next 0 passes for location: London (51.5072 / 0.1276)

Sorry there are no passes over London.